Temperature
21 20 19 19 18 19 20 21 22 23 23 23 23 23 22 22 21 21 21 21 21 21 20 19 20 20 20 20 20 20 20 20 20 20 19 19 19 19 19 19 18 18 18 18 18 18 18 18 18
21 20 19 19 19 20 21 22 23 23 23 23 23 22 22 21 21 21 20 21 21 21 20 20 20 20 20 20 20 20 20 20 20 19 19 19 19 19 19 18 18 18 18 18 18 18 18 18 18
20 20 19 18 19 20 22 23 23 23 23 23 22 22 22 21 21 21 21 21 21 21 20 20 20 20 20 20 20 20 20 20 20 19 19 19 19 19 18 18 18 18 18 18 18 18 18 18 17
20 20 19 18 20 21 22 23 23 23 23 23 22 21 21 21 21 21 21 21 21 21 20 20 20 20 20 20 20 20 20 20 20 19 19 19 19 19 18 18 18 18 18 18 18 18 18 17 17
20 20 18 18 20 21 23 24 24 23 23 23 22 20 20 21 21 21 21 21 21 20 20 20 20 20 20 20 20 20 20 20 19 19 19 19 19 18 18 18 18 18 18 18 18 17 17 17 17
20 18 18 19 21 23 24 24 24 23 23 22 21 20 19 20 21 21 21 21 21 21 20 20 20 20 20 20 20 20 20 19 19 19 19 19 18 18 18 18 18 18 18 18 18 17 17 17 17
20 17 19 20 21 23 24 24 24 23 22 22 22 20 19 19 20 21 20 20 20 20 20 20 20 20 20 20 20 20 19 19 19 19 19 18 18 18 18 18 18 18 18 18 17 17 17 17 17
21 18 20 20 22 23 24 24 24 23 22 22 22 20 19 19 20 20 20 20 20 20 20 20 20 20 20 20 19 19 19 19 19 19 18 18 18 18 18 18 18 18 18 18 17 17 17 17 17
21 18 19 21 22 24 24 24 23 23 22 22 22 22 21 20 19 19 19 19 19 19 19 19 19 19 19 19 19 19 19 19 19 18 18 18 18 18 18 18 18 18 18 18 17 17 17 17 17
21 18 20 22 23 24 24 24 23 22 21 21 21 21 21 20 19 19 19 19 19 19 19 19 19 19 19 19 19 19 19 19 18 18 18 18 18 18 18 18 18 18 18 18 17 17 17 17 17
20 20 22 23 25 25 24 24 23 22 21 21 21 21 20 20 19 19 19 20 20 20 19 19 19 19 19 19 19 19 19 18 18 18 18 18 18 18 18 18 18 18 18 18 17 17 17 17 17
21 22 23 25 25 25 24 23 22 22 23 24 24 23 21 19 19 19 19 20 19 19 19 19 19 19 19 19 19 19 19 18 18 18 18 18 18 18 18 18 18 18 18 17 17 17 17 17 17
23 23 25 25 25 25 24 23 22 22 23 23 23 22 21 20 20 19 19 20 20 19 19 19 19 19 19 19 19 19 19 19 18 18 18 18 18 18 18 18 17 17 17 17 17 17 17 17 17
23 24 24 24 25 25 23 22 22 22 23 22 22 21 20 20 20 19 19 19 19 19 19 19 19 19 19 19 19 19 19 18 18 18 18 18 18 18 17 17 17 17 17 17 17 17 17 17 17
24 23 23 23 24 24 23 22 21 22 22 21 21 20 20 19 19 19 19 19 19 19 19 19 19 19 19 19 19 19 19 18 18 18 18 18 17 17 17 17 17 17 17 17 17 17 17 17 17
23 22 22 23 23 24 24 23 22 22 21 20 20 19 19 19 19 19 19 19 19 19 19 19 18 18 19 19 19 19 19 18 18 18 18 18 17 17 17 17 17 17 17 17 17 17 16 16 16
21 21 22 23 23 23 23 22 21 21 20 19 19 19 19 18 18 18 18 19 19 19 19 19 18 19 19 18 18 18 18 18 18 18 18 18 17 17 17 17 17 17 17 17 17 16 16 16 16
22 22 22 22 23 23 22 21 20 20 20 19 19 19 18 18 18 18 18 18 18 18 18 19 18 18 18 18 18 18 18 18 18 18 18 18 17 17 17 17 17 17 17 17 16 16 16 16 16
22 22 21 22 23 23 22 21 20 19 19 19 18 18 18 18 18 18 18 18 18 18 18 18 18 18 18 18 18 18 18 18 18 18 17 17 17 17 17 17 17 17 17 16 16 16 16 16 16
22 22 21 22 22 23 21 20 20 19 19 18 18 18 18 18 18 18 18 18 18 18 17 17 18 18 18 18 18 18 18 18 18 17 17 17 17 17 17 17 17 17 16 16 16 16 16 16 16
22 22 22 22 22 21 21 20 20 19 19 19 18 18 18 18 18 18 18 18 18 17 17 17 17 17 17 17 17 17 17 17 17 17 17 17 17 17 17 17 17 16 16 16 16 16 16 16 16
22 22 23 22 21 19 20 19 20 19 18 18 18 18 18 18 18 18 18 17 17 17 17 17 17 17 17 17 17 17 17 17 17 18 17 17 17 17 17 16 16 16 16 16 16 16 16 16 16
22 22 22 21 20 19 19 19 19 18 18 18 18 18 18 18 18 18 18 18 17 17 17 17 17 17 17 17 17 17 17 17 17 17 17 17 17 17 16 16 16 16 16 16 16 16 16 16 16
23 21 20 17 17 19 19 19 19 18 19 19 18 18 18 18 18 18 18 17 17 17 17 17 17 17 17 17 17 17 17 17 17 17 17 17 17 16 16 16 16 16 16 16 16 16 16 15 15
22 20 19 19 18 18 18 18 18 19 19 19 18 18 18 18 18 18 17 17 17 17 17 17 17 17 17 17 17 17 17 17 17 17 17 17 17 17 17 16 16 16 16 16 16 16 15 15 15
21 20 19 20 19 18 18 18 19 19 19 19 19 18 18 18 18 18 18 18 17 17 17 17 17 17 17 17 17 17 17 17 17 17 17 17 17 17 17 16 16 16 16 16 15 15 15 15 15
21 19 19 18 18 18 18 18 19 19 19 18 18 18 18 18 19 19 18 18 18 18 18 17 17 17 17 17 17 17 17 17 17 17 17 17 17 17 16 16 16 16 16 15 15 15 15 15 15
21 18 17 17 18 19 20 19 19 19 19 18 17 18 18 18 18 19 18 18 18 18 18 18 18 17 17 17 17 17 17 17 17 17 17 17 17 17 16 16 16 16 16 15 15 15 15 15 15
20 19 17 16 17 18 19 19 19 19 18 18 18 18 19 19 19 19 19 18 18 18 18 18 18 18 18 18 17 17 17 17 17 17 17 17 17 16 16 16 16 16 16 15 15 15 15 15 15
20 19 17 18 18 17 17 18 20 19 18 17 18 19 19 19 19 19 19 18 18 18 18 18 18 18 18 18 18 17 17 17 17 17 17 17 16 16 16 16 16 16 16 16 15 15 15 15 15
Wind_Speed
8 7 3 1 3 3 3 4 3 2 2 2 5 5 6 5 4 3 3 15 19 18 19 22 22 21 20 20 20 20 19 19 19 18 18 17 17 16 15 15 14 14 13 13 13 13 13 13 13
6 4 1 2 3 1 4 4 4 4 4 4 4 3 2 2 2 6 8 13 20 18 18 20 22 22 21 20 19 19 19 18 18 17 17 16 16 15 15 14 14 13 13 13 13 13 13 13 12
5 2 3 3 2 4 4 4 4 2 4 4 3 2 2 3 6 7 9 17 18 16 18 21 24 22 21 20 19 19 18 18 17 16 16 16 15 15 14 14 14 13 13 13 13 13 13 12 12
3 3 3 3 4 5 5 4 3 4 2 3 4 3 1 1 5 7 16 19 19 15 17 21 24 22 21 21 19 19 18 17 16 15 15 15 14 14 14 14 13 13 13 13 12 12 12 11 10
3 4 3 2 5 5 5 5 7 6 4 4 5 4 1 3 7 15 18 19 18 14 15 20 23 22 21 21 19 18 17 17 16 15 14 14 14 13 13 13 13 12 12 12 12 11 11 10 9
4 4 3 3 5 5 4 5 6 5 3 4 5 4 1 3 11 16 16 16 16 16 13 19 23 22 21 20 20 18 17 16 15 15 14 13 13 12 12 12 12 11 11 11 11 10 9 8 7
4 4 3 4 4 5 2 3 5 5 4 4 6 6 3 5 9 14 13 13 13 13 12 12 18 20 21 20 19 18 17 16 15 14 13 13 12 12 11 11 11 11 10 10 9 9 8 7 6
5 4 1 3 4 4 1 2 1 4 3 4 5 7 6 8 11 12 12 11 11 11 10 9 12 15 16 17 19 18 17 16 15 14 13 13 12 11 11 10 10 9 9 8 8 7 7 6 6
4 3 3 5 5 4 1 2 1 2 4 3 2 3 6 17 16 15 13 11 11 12 9 9 9 11 13 14 17 17 17 16 15 14 13 12 9 9 9 8 8 8 8 7 6 6 6 6 5
4 3 7 6 5 4 3 3 5 3 2 2 2 5 13 19 18 19 19 18 16 14 12 9 9 9 11 13 13 12 12 13 12 11 10 9 8 7 7 7 8 7 6 6 5 4 5 5 4
7 7 6 6 7 5 3 3 5 7 5 8 9 12 18 19 18 17 17 17 17 15 14 11 10 9 9 7 9 8 9 9 9 10 9 9 7 5 4 4 3 3 4 3 3 4 4 3 3
6 8 6 6 3 3 4 5 4 6 7 6 11 17 20 20 20 19 18 16 14 14 14 12 11 9 8 7 7 7 7 7 7 8 10 8 5 4 3 3 3 3 3 3 3 3 3 3 3
6 6 5 6 5 3 3 5 4 5 3 5 11 16 19 19 16 13 12 12 13 14 14 13 12 10 8 7 6 7 6 7 8 8 9 9 5 3 3 3 3 3 3 3 2 2 2 2 2
5 5 6 5 3 2 4 2 2 5 3 8 12 14 15 15 14 12 12 13 14 14 14 12 13 11 9 8 7 6 7 8 8 8 9 9 7 5 4 3 3 3 3 3 3 2 2 1 1
3 5 7 3 1 1 3 1 4 4 6 9 11 12 12 11 11 13 14 14 13 13 11 11 12 11 10 9 9 7 8 9 7 8 9 10 9 7 5 3 3 3 4 4 4 3 3 1 1
4 4 5 6 1 1 4 6 5 4 8 8 8 9 10 10 10 11 11 10 10 11 11 11 13 11 10 8 7 6 8 8 8 9 9 10 10 9 7 4 3 4 5 4 3 3 2 2 1
5 3 5 7 2 1 2 6 3 4 7 7 7 8 8 8 7 8 10 11 11 12 13 13 11 11 10 8 6 6 7 7 8 9 8 10 10 10 8 5 4 6 4 3 3 2 2 2 1
3 4 6 8 4 1 4 6 4 4 5 6 6 6 6 8 9 8 9 11 10 11 12 13 11 10 9 7 5 4 5 5 6 7 8 10 10 11 9 6 6 6 4 3 3 3 2 2 1
4 4 9 10 5 3 6 7 4 4 4 5 5 5 6 6 5 6 8 10 11 10 11 12 11 10 10 7 7 6 6 5 4 5 8 10 10 11 9 5 5 5 5 5 5 3 3 2 1
4 5 8 9 3 1 4 6 2 4 5 6 7 6 6 5 4 6 8 10 11 12 12 12 11 11 10 8 6 4 4 3 4 4 5 9 10 10 9 7 6 5 5 5 4 4 3 2 2
5 5 7 7 4 3 3 6 3 1 2 3 5 6 6 8 8 8 8 10 10 11 12 12 12 11 10 8 6 5 4 3 3 3 4 5 9 10 9 9 7 6 5 5 5 5 5 3 1
6 6 6 4 1 4 3 4 7 2 3 4 5 6 6 7 7 7 8 9 9 11 10 9 10 11 11 10 10 9 7 5 5 5 4 4 6 8 9 9 8 6 5 6 5 5 4 4 3
7 2 0 0 2 1 2 1 8 1 4 6 6 7 7 7 8 8 9 9 9 9 10 9 9 10 11 11 12 11 7 5 4 5 6 5 4 6 8 9 8 6 5 6 5 5 4 3 4
4 4 5 5 4 2 2 2 7 4 6 5 6 8 8 7 7 7 7 7 7 7 8 8 8 10 10 11 11 11 10 8 8 7 7 5 4 3 5 7 7 6 5 6 5 5 5 4 4
4 5 4 5 4 6 2 3 9 7 6 6 7 8 9 9 9 9 8 8 8 9 9 9 9 9 11 11 11 10 11 11 10 9 8 7 5 4 6 6 6 5 6 6 5 5 5 5 5
5 8 7 5 5 6 2 5 7 5 4 3 4 6 8 9 9 9 9 9 9 9 9 10 10 9 10 11 10 8 9 8 7 8 8 8 6 6 7 7 7 6 7 7 6 4 4 4 4
6 5 6 6 2 2 5 6 7 1 1 2 4 6 8 9 10 9 9 9 9 9 9 10 10 9 10 10 9 8 8 8 8 8 7 6 5 6 7 7 7 7 7 7 6 5 5 5 4
4 8 6 6 5 4 5 5 5 5 3 2 4 6 6 7 8 8 8 9 9 9 8 8 9 10 9 9 9 8 8 8 8 7 8 7 7 6 8 8 8 7 7 7 6 5 4 5 4
4 5 5 5 5 6 4 7 6 7 6 6 6 6 7 7 8 9 9 9 8 8 8 8 9 8 8 9 8 8 7 7 8 8 8 8 7 8 9 9 8 8 8 7 7 6 6 6 5
4 6 7 5 4 5 4 8 5 5 4 4 5 5 6 6 7 8 9 8 8 8 9 9 8 9 9 9 8 8 8 8 8 8 8 8 7 7 8 8 8 8 9 8 8 8 8 8 7
Wind_Direction
158 141 138 115 63 49 270 248 215 203 186 185 148 154 160 166 177 206 131 145 141 147 155 155 151 146 140 135 132 130 128 127 126 127 127 128 128 128 127 126 125 124 121 115 112 112 112 114 115
141 145 128 66 84 33 272 241 218 207 166 118 107 121 126 168 106 121 135 146 143 147 152 154 153 148 143 139 136 134 132 130 130 130 130 130 130 130 129 128 127 125 121 118 116 114 113 114 117
149 160 94 78 129 203 246 232 202 144 144 140 131 111 146 165 145 149 152 145 142 146 150 156 154 151 147 143 141 138 136 135 134 133 133 133 133 132 130 129 128 125 121 119 117 116 114 115 117
133 72 61 71 248 238 236 234 168 147 138 143 143 134 101 90 153 149 143 145 144 147 151 159 156 153 150 147 145 143 141 140 138 137 136 136 134 134 133 131 128 126 123 120 118 117 116 115 116
75 88 61 324 262 254 245 216 173 172 173 162 151 144 84 13 122 136 144 148 146 147 153 159 157 156 154 151 148 147 146 144 143 142 140 138 137 136 134 134 131 127 125 123 121 118 116 115 115
71 77 84 277 273 269 257 197 156 165 161 143 143 134 85 109 132 142 146 147 149 151 152 159 159 158 157 155 153 151 151 150 148 147 146 143 142 140 137 137 134 130 128 125 122 118 115 112 110
121 119 192 245 278 290 276 136 150 164 165 167 152 135 139 150 145 141 141 141 146 151 151 156 160 161 160 159 157 156 155 155 154 153 152 149 147 144 143 141 138 135 132 129 124 120 113 105 104
143 117 242 256 257 278 293 88 122 144 158 135 140 153 175 168 146 134 133 137 143 148 153 153 155 157 159 161 162 161 160 159 158 158 157 155 153 151 148 145 144 141 137 134 128 121 112 102 101
121 83 241 234 222 255 206 109 83 103 122 130 149 168 160 145 143 141 141 144 153 158 156 155 152 151 154 158 166 165 164 164 163 163 163 158 150 149 150 154 154 150 145 141 135 126 113 102 96
127 174 231 224 212 223 233 194 170 139 145 174 135 114 138 148 155 160 162 165 166 167 166 162 157 152 155 163 163 162 162 164 162 161 159 147 143 149 154 167 166 162 156 148 140 127 108 97 88
177 209 239 250 233 226 215 192 159 149 204 210 189 160 156 161 166 171 172 172 171 170 171 169 163 158 159 155 154 154 151 153 156 155 151 145 145 150 152 159 160 157 147 120 111 102 96 98 104
204 244 241 264 246 205 193 167 167 190 222 209 177 161 163 170 175 179 177 173 171 173 176 170 166 163 161 154 155 152 150 154 157 159 158 152 151 155 158 163 151 133 119 111 95 88 88 96 108
228 265 260 255 272 226 171 179 186 230 251 135 147 160 171 178 179 179 176 174 174 178 177 172 168 168 165 156 161 160 158 163 164 165 169 168 165 169 172 173 162 154 140 129 114 100 97 91 92
249 265 281 280 260 201 164 196 161 234 162 144 154 169 176 179 178 174 175 183 185 182 179 174 175 172 168 166 164 161 165 167 167 172 178 180 179 175 172 172 168 170 166 153 138 126 113 90 94
295 310 321 308 234 195 123 300 235 207 151 156 168 175 178 179 178 183 185 188 187 182 173 172 174 170 172 171 170 168 170 169 172 178 185 188 187 183 175 167 178 182 166 144 127 109 98 97 94
2 9 330 303 293 206 147 256 252 167 153 163 173 177 180 182 186 190 190 188 182 174 170 174 182 176 177 175 172 166 169 170 174 177 183 188 187 181 172 170 182 176 156 141 129 115 104 96 97
26 347 302 305 300 176 189 254 251 170 163 178 183 180 182 179 188 194 189 185 183 180 174 177 181 176 176 171 166 162 162 168 171 172 176 181 181 179 172 172 172 164 148 142 141 113 122 131 124
279 298 298 295 292 297 267 260 249 192 177 191 190 182 179 187 195 189 183 181 184 183 176 176 175 170 164 159 151 149 151 159 164 168 175 174 175 175 169 166 165 157 143 138 129 123 101 105 118
228 259 281 282 290 272 266 272 260 192 175 191 197 191 188 197 188 176 174 176 181 178 174 176 175 172 166 167 171 170 174 170 167 171 174 173 171 170 165 163 161 159 156 156 145 125 115 90 95
225 272 281 291 330 319 292 290 264 184 188 193 193 193 193 186 173 180 177 177 181 179 177 182 183 175 174 173 167 158 151 160 161 162 165 173 169 168 170 162 165 162 148 144 146 135 126 101 92
250 231 254 267 320 26 350 317 297 238 179 181 186 190 188 191 190 189 182 181 179 180 182 187 184 175 172 164 146 130 111 103 132 163 170 174 171 171 168 168 162 161 157 161 163 154 146 145 97
268 245 237 253 309 309 34 295 290 266 251 218 204 194 189 193 190 187 182 184 186 186 180 178 177 174 171 164 164 167 175 177 185 173 167 161 168 171 169 166 163 162 159 161 170 163 151 145 150
225 262 166 18 140 339 360 212 288 311 257 245 220 203 196 192 186 185 184 185 184 178 174 175 174 179 174 171 174 176 177 172 157 143 152 154 159 170 168 164 162 161 162 165 162 157 157 155 157
185 71 52 53 72 310 261 193 281 248 233 239 211 197 189 183 177 176 171 166 173 170 173 175 175 180 177 174 176 177 173 166 161 158 162 161 159 163 166 164 165 165 163 165 166 163 160 161 154
127 94 20 350 0 257 247 222 252 258 238 222 206 191 182 178 173 172 167 168 175 178 182 180 179 180 180 178 180 182 177 173 176 171 172 166 167 173 180 170 166 167 170 166 159 159 164 164 161
176 148 164 211 236 276 284 244 257 262 261 227 184 175 173 177 179 174 176 176 179 182 181 177 179 181 179 177 178 178 175 176 178 173 172 177 182 181 175 170 172 173 170 167 161 162 171 166 167
148 174 165 142 167 269 280 282 301 268 342 127 151 159 179 183 181 176 176 178 178 181 182 179 179 180 179 176 172 175 175 175 177 172 172 177 177 176 172 172 173 176 173 169 166 172 174 166 173
149 144 109 131 158 247 287 278 257 264 248 203 179 186 192 184 179 176 178 181 182 181 178 171 172 177 175 174 178 184 180 181 177 172 178 181 180 174 172 177 178 178 176 172 171 172 175 172 180
121 113 118 127 158 168 247 271 227 221 218 210 213 203 193 189 187 184 182 182 179 170 169 173 173 171 173 177 179 176 178 180 176 182 189 188 183 178 182 184 182 182 184 181 179 184 180 184 190
167 167 149 157 210 185 189 264 272 213 211 200 210 206 192 187 184 183 179 173 173 175 176 177 179 180 182 179 176 177 174 171 176 186 188 184 184 186 188 185 185 190 192 187 187 192 190 193 199
Height
1493 1494 1495 1497 1499 1506 1505 1495 1489 1487 1486 1485 1485 1488 1489 1491 1495 1499 1493 1493 1498 1503 1508 1513 1517 1520 1523 1525 1527 1529 1531 1532 1534 1535 1537 1538 1540 1541 1542 1543 1544 1545 1546 1547 1548 1549 1550 1551 1552
1493 1494 1497 1497 1503 1512 1504 1490 1487 1484 1483 1484 1486 1487 1488 1488 1489 1489 1490 1494 1499 1504 1508 1513 1517 1521 1523 1526 1528 1530 1532 1534 1535 1537 1538 1540 1541 1543 1544 1545 1546 1547 1548 1549 1550 1551 1552 1553 1554
1493 1495 1497 1499 1504 1507 1497 1485 1482 1482 1483 1484 1486 1487 1488 1488 1487 1487 1490 1494 1500 1505 1509 1514 1518 1521 1524 1527 1529 1531 1533 1535 1537 1538 1540 1542 1543 1544 1545 1547 1548 1549 1550 1551 1552 1553 1554 1555 1556
1493 1496 1497 1502 1503 1495 1487 1481 1480 1482 1483 1484 1485 1487 1487 1488 1487 1488 1491 1495 1500 1505 1510 1514 1518 1522 1525 1527 1530 1532 1534 1536 1538 1540 1542 1543 1545 1546 1547 1548 1550 1551 1552 1553 1554 1555 1556 1557 1558
1493 1495 1500 1505 1500 1488 1480 1477 1478 1481 1482 1483 1484 1486 1487 1488 1488 1489 1492 1497 1501 1505 1510 1515 1519 1522 1525 1528 1531 1533 1536 1538 1540 1541 1543 1545 1546 1548 1549 1550 1551 1552 1553 1554 1556 1557 1558 1559 1560
1494 1495 1506 1508 1496 1483 1477 1475 1477 1479 1481 1482 1484 1486 1487 1488 1488 1491 1494 1498 1503 1506 1511 1515 1519 1523 1526 1529 1531 1534 1536 1539 1541 1543 1545 1546 1548 1549 1551 1552 1553 1554 1555 1556 1558 1559 1560 1561 1562
1494 1498 1503 1500 1494 1485 1477 1475 1476 1478 1480 1481 1482 1485 1486 1488 1490 1492 1496 1500 1504 1508 1511 1515 1519 1523 1526 1529 1532 1534 1537 1539 1542 1544 1546 1547 1549 1551 1552 1553 1555 1556 1557 1558 1559 1561 1562 1563 1564
1491 1496 1498 1498 1492 1485 1476 1476 1477 1478 1480 1481 1482 1483 1484 1487 1490 1493 1497 1501 1505 1508 1512 1515 1519 1522 1526 1529 1532 1535 1537 1540 1542 1545 1547 1549 1550 1552 1553 1555 1556 1557 1558 1560 1561 1562 1563 1564 1565
1490 1499 1502 1493 1488 1481 1476 1476 1477 1478 1479 1480 1480 1481 1482 1485 1488 1492 1495 1500 1504 1508 1512 1515 1519 1522 1526 1529 1532 1535 1538 1540 1543 1545 1548 1550 1551 1553 1555 1556 1557 1559 1560 1561 1562 1563 1564 1566 1567
1489 1499 1492 1482 1478 1476 1474 1474 1475 1478 1479 1479 1479 1479 1481 1484 1487 1490 1492 1496 1500 1504 1509 1514 1518 1521 1525 1529 1532 1535 1538 1540 1543 1545 1548 1550 1552 1554 1555 1557 1559 1560 1561 1562 1563 1565 1566 1567 1568
1486 1488 1480 1475 1474 1473 1473 1473 1474 1476 1478 1475 1474 1475 1478 1482 1485 1488 1491 1494 1497 1502 1508 1512 1517 1521 1525 1528 1531 1534 1537 1540 1543 1546 1548 1551 1553 1554 1556 1558 1559 1560 1562 1563 1564 1565 1567 1568 1569
1483 1478 1476 1473 1471 1471 1471 1471 1473 1472 1471 1470 1471 1473 1475 1479 1482 1485 1489 1493 1497 1501 1506 1510 1515 1519 1524 1527 1531 1534 1537 1540 1543 1546 1549 1551 1553 1555 1557 1558 1560 1561 1562 1564 1565 1566 1567 1569 1570
1479 1476 1473 1471 1470 1469 1470 1470 1471 1470 1469 1469 1471 1472 1474 1477 1481 1485 1489 1493 1496 1499 1503 1508 1513 1518 1522 1526 1530 1533 1537 1540 1543 1546 1549 1551 1553 1555 1557 1559 1560 1562 1563 1564 1565 1567 1568 1569 1570
1475 1473 1471 1468 1468 1468 1469 1470 1470 1468 1468 1469 1470 1471 1473 1477 1480 1484 1488 1491 1494 1497 1502 1506 1511 1516 1521 1525 1529 1533 1536 1540 1543 1546 1549 1551 1554 1556 1557 1559 1560 1562 1563 1564 1566 1567 1568 1569 1571
1474 1473 1471 1467 1467 1468 1469 1472 1469 1466 1467 1468 1469 1471 1473 1476 1479 1481 1484 1488 1493 1497 1501 1505 1510 1515 1520 1524 1528 1532 1536 1539 1542 1545 1548 1551 1553 1555 1557 1559 1560 1562 1563 1565 1566 1567 1568 1569 1570
1474 1478 1481 1471 1467 1467 1472 1477 1466 1465 1466 1467 1469 1471 1472 1474 1477 1480 1483 1486 1490 1495 1499 1505 1510 1514 1519 1523 1528 1531 1535 1538 1542 1545 1547 1550 1553 1555 1557 1558 1560 1562 1563 1564 1566 1567 1568 1569 1570
1484 1489 1485 1475 1467 1467 1470 1472 1465 1464 1465 1466 1468 1470 1471 1474 1476 1478 1480 1484 1488 1492 1497 1502 1507 1512 1518 1522 1527 1530 1534 1538 1541 1544 1546 1549 1552 1554 1556 1558 1560 1561 1563 1564 1566 1567 1568 1569 1570
1490 1488 1484 1480 1469 1468 1470 1469 1464 1465 1466 1466 1467 1469 1470 1472 1473 1475 1478 1482 1485 1490 1495 1500 1505 1511 1516 1521 1525 1529 1533 1536 1540 1542 1545 1548 1550 1553 1555 1557 1559 1561 1562 1564 1565 1566 1567 1568 1569
1480 1483 1485 1475 1467 1468 1469 1468 1464 1464 1465 1466 1467 1468 1469 1470 1472 1474 1477 1480 1484 1488 1492 1497 1503 1508 1513 1517 1522 1526 1530 1534 1538 1541 1544 1546 1549 1552 1554 1556 1558 1560 1561 1563 1564 1565 1567 1568 1569
1478 1483 1481 1472 1465 1467 1469 1468 1463 1463 1464 1465 1466 1467 1468 1469 1471 1473 1475 1479 1481 1485 1489 1495 1500 1505 1510 1515 1520 1524 1529 1532 1536 1540 1542 1545 1548 1550 1553 1555 1557 1558 1560 1561 1563 1564 1566 1567 1568
1476 1479 1477 1474 1468 1468 1471 1472 1466 1463 1463 1464 1465 1466 1466 1468 1469 1471 1473 1476 1479 1483 1487 1491 1497 1502 1507 1513 1518 1523 1527 1531 1534 1538 1540 1543 1546 1549 1551 1553 1555 1557 1559 1560 1561 1563 1564 1565 1567
1478 1468 1468 1469 1477 1484 1479 1489 1470 1465 1464 1463 1463 1464 1466 1467 1469 1470 1472 1474 1477 1481 1485 1489 1494 1499 1504 1510 1514 1519 1523 1527 1531 1535 1538 1541 1544 1547 1550 1552 1554 1556 1557 1559 1560 1561 1563 1564 1565
1467 1463 1466 1470 1477 1485 1483 1488 1478 1467 1465 1461 1460 1462 1464 1466 1467 1469 1471 1472 1476 1480 1483 1487 1491 1496 1501 1507 1511 1516 1521 1525 1529 1532 1536 1539 1542 1545 1548 1550 1552 1554 1555 1557 1558 1560 1561 1562 1563
1460 1465 1471 1479 1486 1494 1484 1489 1482 1470 1462 1458 1457 1459 1461 1463 1466 1469 1471 1473 1476 1479 1482 1486 1489 1493 1499 1503 1508 1513 1518 1522 1526 1529 1533 1537 1540 1543 1546 1548 1550 1552 1554 1555 1556 1558 1559 1560 1561
1461 1477 1495 1496 1503 1498 1484 1486 1479 1459 1454 1453 1454 1456 1458 1461 1464 1467 1470 1472 1475 1478 1481 1484 1487 1491 1497 1501 1506 1511 1516 1520 1524 1527 1531 1535 1538 1541 1544 1546 1548 1550 1552 1553 1555 1556 1557 1558 1559
1462 1472 1493 1502 1504 1495 1484 1484 1467 1453 1451 1451 1452 1454 1456 1459 1462 1465 1468 1471 1474 1476 1479 1483 1486 1490 1495 1500 1504 1510 1514 1518 1522 1526 1530 1533 1536 1539 1542 1545 1547 1548 1550 1551 1553 1554 1555 1556 1557
1462 1470 1470 1487 1491 1495 1487 1476 1461 1451 1451 1451 1451 1453 1454 1456 1460 1463 1466 1470 1472 1475 1478 1481 1485 1489 1493 1498 1503 1508 1512 1515 1520 1524 1528 1531 1535 1538 1540 1543 1545 1546 1548 1549 1551 1551 1552 1553 1554
1453 1462 1477 1487 1497 1498 1486 1478 1471 1455 1453 1451 1451 1451 1453 1455 1458 1461 1465 1468 1471 1474 1477 1481 1484 1488 1492 1497 1501 1505 1510 1514 1518 1522 1526 1529 1533 1535 1538 1540 1542 1544 1545 1547 1548 1549 1550 1551 1552
1459 1465 1472 1483 1485 1494 1494 1481 1453 1450 1448 1449 1448 1449 1451 1454 1456 1459 1463 1467 1470 1473 1477 1480 1484 1487 1491 1496 1500 1504 1508 1512 1516 1520 1523 1527 1530 1533 1535 1537 1539 1541 1543 1544 1545 1546 1547 1548 1550
1452 1458 1468 1478 1483 1485 1487 1477 1444 1444 1445 1446 1447 1448 1450 1452 1455 1458 1462 1465 1469 1472 1475 1479 1483 1487 1490 1494 1498 1502 1506 1510 1513 1517 1520 1524 1527 1529 1532 1534 1536 1538 1539 1541 1542 1543 1545 1546 1547